Location: Hains Lake
(37.8540°N, 99.8578°W)
Time: 16:24:26
(UTC+00:00)

Courier 1B Rocket - Pass Details

Date: 22 April 2021
Orbit: 920 x 1202 km, 28.3° (Epoch: 10 May)

Event Time Altitude Azimuth Distance (km) Brightness Sun altitude
Rises 04:42:29 0° 261° (W) 3,770 8.4 -33.0°
Reaches altitude 10° 04:45:21 10° 252° (WSW) 2,861 7.6 -33.4°
Enters shadow 04:47:26 19° 241° (WSW) 2,288 6.9 -33.6°
